Погода в Поныри

Погода в Поныри : погода сейчас, прогноз погоды и архив. Всё, что Вы хотите узнать о погоде в Поныри!

Хотите узнать прогноз погоды в Поныри? Тогда Вам сюда: Погода в Поныри

Поиск расширенной информации на нашем сайте:

Другие новости

Новости СМИ2

Главная страница сайта

Новости сайта

03.07.2017

Напоминаем, что на нашем специализированном сайте Метеоцентр.Азия вы можете получить высокодетализированные автоматические прогнозы погоды по пунктам России, СНГ и мира в авиационном формате (включающие направление и скорость ветра, видимость, явления погоды, количество и форму облачности, нижнюю и верхнюю границу облачности).


Погода в Поныри - сегодня

Время (UTC), дата Ветер
(°,м/с) 
Видим.   Явления Облачность Т
(°С)
Тd
(°С)
f(%) Тe
(°С)
Pmin
(гПа)
dP
(гПа)
Po
(мм)
O2
(г/м3)
Тmin Tmax R s Состояние
почвы
21 12.06.18 230 (ЮЗ) 20000 м    10/10 600 м кучево-дожд. 
[Cb cap]
+17.7 +11.4 67 +22  1003.4  -0.5  731  274           
00 13.06.18 230 (ЮЗ) 20000 м    9/0 средняя 
[Ac trans]
+16.3 +11.9 75 +21  1002.7  -0.8  730  275           
09 13.06.18 330 (СЗ) 20000 м    8/8 600 м 
[Cu med, cong]
+22.6 +9 42 +23  1003.7  0.9  731  271           
12 13.06.18 300 (СЗ) 20000 м    9/9 600 м 
[Cu med, cong]
+24.4 +9.4 39 +25  1004.3  0.8  732  269           
15 13.06.18 320 (СЗ) 20000 м    6/6 600 м 
[Cu med, cong]
+24.9 +8.6 35 +25  1004.8  0.5  732  269           
21 13.06.18 060 (СВ) 20000 м    ясно 
+16.3 +10.3 68 +20  1008.7  1.8  735  277           
00 14.06.18 070 (В) 20000 м    8/8 600 м кучево-дожд. 
[Cb cap]
+16 +11 72 +20  1009.8  735  278           
09 14.06.18 060 (СВ) 20000 м    8/8 600 м 
[Cu med, cong]
+24.4 +9.4 39 +25  1010.4  0.2  736  271           
12 14.06.18 070 (В) 20000 м    8/3 600 м кучево-дожд., средняя 
[Cb calv|Ac trans]
+23.6 +11.1 45 +27  1011.2  0.7  737  271           
15 14.06.18 070 (В) 20000 м    8/4 600 м кучево-дожд., верхняя 
[Cb calv|Ci fib]
+24.3 +10.4 42 +26  1010.7  -0.4  737  271           
21 14.06.18 090 (В) 20000 м    ясно 
+16.5 +11.3 71 +20  1012.5  0.8  737  278           
00 15.06.18 100 (В) 20000 м    10/10 600 м 
[Sc]
+15.6 +10 69 +17  1013.1  0.4  738  279           
21 15.06.18 100 (В) 20000 м  зарница  3/3 600 м кучево-дожд. 
[Cb cap]
+13.1 +5.5 60 +12  1016.1  0.4  740  284           
00 16.06.18 180 (Ю) 20000 м    8/8 600 м кучево-дожд. 
[Cb cap]
+12.4 +5 61 +14  1018.3  741  285           
09 16.06.18 090 (В) 20000 м    6/3 600 м кучево-дожд., средняя 
[Cb calv|Ac trans]
+18.8 +7.7 48 +19  1017.7  0.2  741  278           
21 16.06.18 090 (В) 20000 м    ясно 
+13.4 +3.6 51 +14  1018.6  0.4  742  284           
00 17.06.18 100 (В) 20000 м    ясно 
+11.5 +4.3 61 +11  1019.1  0.3  742  286           
09 17.06.18 080 (В) 20000 м    ясно 
+23 +6.1 34 +23  1017.7  -0.4  742  275           
12 17.06.18 090 (В) 20000 м    ясно 
+24.4 +6.4 31 +24  1016.7  -0.8  741  273           
15 17.06.18 100 (В) 20000 м    ясно 
+24.3 +4.5 28 +24  1016  -0.8  740  273           
21 17.06.18 060 (СВ) 20000 м    ясно 
+13.9 +7.8 67 +15  1017.3  741  283           
00 18.06.18 тихо ()   н/о    н/о 
+10.8 +7.6 81 +11  1017.6  0.2  741  286           
03 18.06.18 080 (В) 20000 м    ясно 
+13.5 +8.2 70 +15  1017.6  0.3  741  283  +9.1         
09 18.06.18 090 (В) 20000 м    4/4 600 м 
[Cu med, cong]
+25 +6.2 30 +25  1016.1  -0.3  741  272           
12 18.06.18 120 (ЮВ) 20000 м    4/4 600 м 
[Cu med, cong]
+25.6 +6.4 29 +26  1015.4  -0.6  740  272           
Время (UTC), дата Ветер
(°,м/с) 
Видим.   Явления Облачность Т
(°С)
Тd
(°С)
f(%) Тe
(°С)
Pmin
(гПа)
dP
(гПа)
Po
(мм)
O2
(г/м3)
Тmin Tmax R s Состояние
почвы

Для получения пояснительной информации подведите курсор к названию столбца.

ПОГОДА в Поныри - архив

Всё, что Вы хотите узнать о погоде в Поныри - удобно и подробно!

Выберите нужную дату (начиная с 1 января 2015* года) и нажмите кнопку "Найти".
Будут отображены архивные сводки погоды по пункту Поныри, начиная с указанной даты.


Отображать данные в формате CSV (для использования в таблицах Excel)


Внимание! Наш архив погоды предназначен исключительно для личного некоммерческого использования в познавательных целях. Если Вам необходимы официальные справки о состоянии погоды (для производственных, юридических, коммерческих и т.п. целей), обращайтесь в органы Росгидромета.

*Примечание: данная дата относится к архиву по метеостанциям СССР (Россия, СНГ, Балтия).
Архив по метеостанциям Зарубежной Европы и Азии (кроме Китая) хранится 10 дней, по другим регионам земного шара (Китай, Африка, Америка, Австралия, Океания) - 1 день.

Поныри - район местоположения метеостанции


Название, широта, долгота, высота метеостанции:
Поныри 52.3°ш. 36.3°д. 251 м над ур. моря [Российская Федерация]

Дополнительная информация

В oтличие oт бoльшинства пoгoдных сайтoв мы публикуем пoдрoбную метеoинфoрмацию в детальнoм прoфессиoнальнoм фoрмате.

Характеристики температуры и влажнoсти вoздуха измеряются на высoте 2 м в тени вдали oт зданий и деревьев.
Скoрoсть ветра измеряется на высoте 10 м (на урoвне рoста челoвека скoрoсть ветра ниже в 1.5-2 раза). Если метеoстанция нахoдится в гoрoде или в лесу, тo скoрoсть ветра занижена на 2-4 м/с пo сравнению с oткрытым местoм. Скoрoсть ветра над акватoриями крупных рек и oзёр, а также на вершинах хoлмoв на 2-5 м/с выше, чем в oбычных услoвиях.
Атмoсфернoе давление в разных тoчках местнoсти мoжет значительнo oтличаться oт давления на метеoстанции, в зависимoсти oт услoвий рельефа (при пoдъёме на 10 м давление пoнижается примернo на 1 мм рт.ст.).